FW3706 Weather Reports


Display with metric or nautical units.
time (UTC)temp
F
wind
direction
speed
MPH
gust
MPH
rain 1hr
in
rain 24hr
in
rain mn
in
humidity
%
barometer
mb
20260905024512 89 8 0.0 3.0 0.00 0.00 0.00 39 1013.5
20260905024012 89 8 0.0 2.0 0.00 0.00 0.00 39 1013.5
20260905023508 89 8 0.0 0.0 0.00 0.00 0.00 39 1013.4
20260905023005 89 8 0.0 1.0 0.00 0.00 0.00 38 1013.3
20260905022511 89 8 0.0 1.0 0.00 0.00 0.00 38 1013.3
20260905022008 90 8 0.0 1.0 0.00 0.00 0.00 37 1013.4
20260905021507 90 8 0.0 0.0 0.00 0.00 0.00 37 1013.4
20260905021009 90 8 0.0 1.0 0.00 0.00 0.00 36 1013.3
20260905020505 91 8 0.0 2.0 0.00 0.00 0.00 35 1013.2
20260905020005 91 8 0.0 2.0 0.00 0.00 0.00 35 1013.0
20260905015512 91 8 0.0 2.0 0.00 0.00 0.00 34 1013.0
20260905015008 91 8 0.0 2.0 0.00 0.00 0.00 34 1013.0
20260905014529 92 8 0.0 2.0 0.00 0.00 0.00 33 1012.9
20260905014012 92 8 0.0 3.0 0.00 0.00 0.00 32 1012.9
20260905013507 92 259 1.0 3.0 0.00 0.00 0.00 31 1012.9
20260905013039 93 259 0.0 5.0 0.00 0.00 0.00 31 1012.9
20260905012513 93 259 1.0 5.0 0.00 0.00 0.00 30 1012.9
20260905012004 93 257 2.0 5.0 0.00 0.00 0.00 30 1012.9
20260905011531 93 257 1.0 5.0 0.00 0.00 0.00 29 1012.8
20260905011012 93 255 3.0 7.0 0.00 0.00 0.00 29 1012.8
20260905010505 94 262 2.0 8.0 0.00 0.00 0.00 28 1012.8
20260905010030 94 284 4.0 8.0 0.00 0.00 0.00 28 1012.8
20260905005512 95 248 4.0 9.0 0.00 0.00 0.00 29 1012.8
20260905005010 95 252 3.0 9.0 0.00 0.00 0.00 29 1012.8
20260905004532 95 276 4.0 9.0 0.00 0.00 0.00 28 1012.7
20260905004010 96 251 3.0 9.0 0.00 0.00 0.00 28 1012.7
20260905003507 96 260 4.0 8.0 0.00 0.00 0.00 27 1012.8
20260905003032 97 293 1.0 7.0 0.00 0.00 0.00 28 1012.6
20260905002512 96 272 1.0 7.0 0.00 0.00 0.00 29 1012.6
20260905002012 96 238 2.0 11.0 0.00 0.00 0.00 29 1012.5
20260905001527 95 229 4.0 11.0 0.00 0.00 0.00 28 1012.4
20260905001013 96 238 6.0 11.0 0.00 0.00 0.00 29 1012.3
20260905000505 97 242 2.0 7.0 0.00 0.00 0.00 29 1012.4
20260905000031 97 274 0.0 5.0 0.00 0.00 0.00 30 1012.4
20260904235511 97 257 0.0 10.0 0.00 0.00 0.00 30 1012.4
20260904235008 96 252 1.0 10.0 0.00 0.00 0.00 30 1012.4
20260904234532 97 255 3.0 10.0 0.00 0.00 0.00 30 1012.5
20260904234010 96 271 4.0 9.0 0.00 0.00 0.00 31 1012.5
20260904233506 96 319 0.0 6.0 0.00 0.00 0.00 33 1012.6
20260904233028 96 349 2.0 4.0 0.00 0.00 0.00 33 1012.6
20260904232510 95 270 0.0 7.0 0.00 0.00 0.00 33 1012.7
20260904232005 95 300 1.0 11.0 0.00 0.00 0.00 34 1012.7
20260904231535 94 252 5.0 11.0 0.00 0.00 0.00 34 1012.8
20260904231016 95 276 3.0 8.0 0.00 0.00 0.00 33 1012.7
20260904230504 96 259 1.0 8.0 0.00 0.00 0.00 32 1012.8
20260904230031 97 307 2.0 8.0 0.00 0.00 0.00 32 1012.8
20260904225511 96 247 2.0 8.0 0.00 0.00 0.00 32 1012.8
20260904225007 96 309 4.0 7.0 0.00 0.00 0.00 31 1012.9
20260904224532 98 248 1.0 6.0 0.00 0.00 0.00 30 1012.9
20260904224010 97 287 0.0 10.0 0.00 0.00 0.00 31 1012.9
20260904223506 96 334 3.0 9.0 0.00 0.00 0.00 31 1012.9
20260904223032 97 295 3.0 9.0 0.00 0.00 0.00 31 1013.0
20260904222519 98 260 4.0 12.0 0.00 0.00 0.00 29 1012.9
20260904222015 96 283 2.0 12.0 0.00 0.00 0.00 29 1012.9
20260904221530 97 287 4.0 11.0 0.00 0.00 0.00 29 1013.0
20260904221012 97 243 6.0 11.0 0.00 0.00 0.00 29 1013.0
20260904220518 97 293 5.0 10.0 0.00 0.00 0.00 29 1013.2
20260904220028 97 247 2.0 8.0 0.00 0.00 0.00 29 1013.2
20260904215511 97 279 1.0 5.0 0.00 0.00 0.00 31 1013.3
20260904215007 97 252 1.0 9.0 0.00 0.00 0.00 31 1013.4
20260904214532 95 249 1.0 9.0 0.00 0.00 0.00 32 1013.5
20260904214011 95 291 1.0 7.0 0.00 0.00 0.00 33 1013.5
20260904213518 94 226 0.0 7.0 0.00 0.00 0.00 33 1013.6
20260904213031 95 306 1.0 9.0 0.00 0.00 0.00 33 1013.7
20260904212513 96 243 2.0 10.0 0.00 0.00 0.00 35 1013.8
20260904212003 96 263 3.0 10.0 0.00 0.00 0.00 35 1013.8
20260904211532 97 271 4.0 10.0 0.00 0.00 0.00 35 1013.7
20260904211022 97 335 1.0 7.0 0.00 0.00 0.00 35 1013.8
20260904210518 96 245 0.0 7.0 0.00 0.00 0.00 36 1013.9
20260904210033 96 272 2.0 7.0 0.00 0.00 0.00 35 1013.9
20260904205522 96 232 1.0 6.0 0.00 0.00 0.00 35 1014.0
20260904205015 96 213 1.0 7.0 0.00 0.00 0.00 36 1014.0
20260904204529 95 309 2.0 10.0 0.00 0.00 0.00 36 1014.1
20260904204022 96 252 4.0 10.0 0.00 0.00 0.00 36 1014.2
20260904203518 97 270 1.0 7.0 0.00 0.00 0.00 36 1014.3
20260904203030 95 262 3.0 10.0 0.00 0.00 0.00 37 1014.4
20260904202511 95 245 5.0 10.0 0.00 0.00 0.00 37 1014.4
20260904202020 96 243 2.0 8.0 0.00 0.00 0.00 37 1014.4
20260904201535 95 274 4.0 8.0 0.00 0.00 0.00 36 1014.5
20260904201010 95 210 2.0 6.0 0.00 0.00 0.00 37 1014.6
20260904200520 95 243 1.0 6.0 0.00 0.00 0.00 36 1014.6
20260904200033 96 177 1.0 4.0 0.00 0.00 0.00 36 1014.7
20260904195515 96 338 0.0 6.0 0.00 0.00 0.00 37 1014.7
20260904195017 95 307 2.0 6.0 0.00 0.00 0.00 36 1014.8
20260904194536 94 339 0.0 6.0 0.00 0.00 0.00 38 1014.9
20260904194009 95 240 0.0 6.0 0.00 0.00 0.00 39 1015.0
20260904193519 95 240 1.0 7.0 0.00 0.00 0.00 38 1015.1
20260904193030 95 250 0.0 7.0 0.00 0.00 0.00 38 1015.1
20260904192523 94 293 0.0 5.0 0.00 0.00 0.00 37 1015.2
20260904192018 94 208 1.0 6.0 0.00 0.00 0.00 37 1015.3
20260904191532 94 242 2.0 6.0 0.00 0.00 0.00 38 1015.4
20260904191010 94 196 2.0 6.0 0.00 0.00 0.00 37 1015.5
20260904190516 94 213 3.0 6.0 0.00 0.00 0.00 38 1015.5
20260904190031 93 167 2.0 4.0 0.00 0.00 0.00 39 1015.6
20260904185509 94 166 0.0 3.0 0.00 0.00 0.00 40 1015.6
20260904185004 93 153 0.0 3.0 0.00 0.00 0.00 41 1015.8
20260904184507 92 151 0.0 4.0 0.00 0.00 0.00 41 1015.8
20260904184010 92 141 0.0 6.0 0.00 0.00 0.00 42 1015.9
20260904183505 93 210 1.0 6.0 0.00 0.00 0.00 42 1015.9
20260904183004 92 199 2.0 7.0 0.00 0.00 0.00 42 1016.0
20260904182510 91 192 2.0 7.0 0.00 0.00 0.00 44 1016.1
20260904182012 92 200 2.0 6.0 0.00 0.00 0.00 45 1016.1
20260904181504 91 210 2.0 6.0 0.00 0.00 0.00 46 1016.1
20260904181018 90 188 1.0 5.0 0.00 0.00 0.00 46 1016.2
20260904180516 90 160 1.0 4.0 0.00 0.00 0.00 47 1016.2
20260904180035 90 162 0.0 6.0 0.00 0.00 0.00 48 1016.4
20260904175508 90 142 2.0 6.0 0.00 0.00 0.00 47 1016.4
20260904175004 90 129 2.0 6.0 0.00 0.00 0.00 48 1016.4
20260904174506 90 149 0.0 5.0 0.00 0.00 0.00 49 1016.5
20260904174010 89 167 1.0 5.0 0.00 0.00 0.00 51 1016.5
20260904173516 89 157 1.0 7.0 0.00 0.00 0.00 52 1016.5
20260904173028 89 91 1.0 7.0 0.00 0.00 0.00 52 1016.6
20260904172514 89 204 3.0 7.0 0.00 0.00 0.00 54 1016.5
20260904172007 88 60 0.0 7.0 0.00 0.00 0.00 55 1016.7
20260904171504 88 46 0.0 7.0 0.00 0.00 0.00 55 1016.8
20260904171019 88 51 3.0 7.0 0.00 0.00 0.00 56 1016.8
20260904170518 87 71 1.0 7.0 0.00 0.00 0.00 56 1016.9
20260904170029 87 68 3.0 8.0 0.00 0.00 0.00 57 1016.9
20260904165513 87 74 2.0 8.0 0.00 0.00 0.00 57 1016.9
20260904165007 87 31 3.0 8.0 0.00 0.00 0.00 57 1016.8
20260904164506 87 59 2.0 8.0 0.00 0.00 0.00 58 1016.8
20260904164017 86 70 2.0 7.0 0.00 0.00 0.00 58 1016.8
20260904163516 86 128 1.0 10.0 0.00 0.00 0.00 59 1016.7
20260904163033 86 86 2.0 10.0 0.00 0.00 0.00 59 1016.7
20260904162510 85 147 2.0 7.0 0.00 0.00 0.00 59 1016.6
20260904162006 86 108 2.0 9.0 0.00 0.00 0.00 59 1016.7
20260904161504 85 112 4.0 9.0 0.00 0.00 0.00 60 1016.7
20260904161019 85 45 3.0 7.0 0.00 0.00 0.00 60 1016.6
20260904160504 85 118 1.0 8.0 0.00 0.00 0.00 61 1016.6
20260904160009 85 94 3.0 8.0 0.00 0.00 0.00 60 1016.6
20260904155519 84 83 2.0 6.0 0.00 0.00 0.00 62 1016.6
20260904155019 84 94 2.0 6.0 0.00 0.00 0.00 62 1016.6
20260904154534 83 360 0.0 7.0 0.00 0.00 0.00 63 1016.6
20260904154018 83 143 1.0 9.0 0.00 0.00 0.00 62 1016.5
20260904153517 84 67 4.0 9.0 0.00 0.00 0.00 61 1016.6
20260904153028 83 91 1.0 7.0 0.00 0.00 0.00 62 1016.5
20260904152510 83 101 2.0 7.0 0.00 0.00 0.00 62 1016.5
20260904152008 83 65 2.0 8.0 0.00 0.00 0.00 62 1016.6
20260904151534 83 88 4.0 7.0 0.00 0.00 0.00 63 1016.6
20260904151019 83 108 2.0 12.0 0.00 0.00 0.00 63 1016.5
20260904150504 83 42 2.0 12.0 0.00 0.00 0.00 63 1016.5
20260904150036 83 69 4.0 10.0 0.00 0.00 0.00 64 1016.4
20260904145517 82 12 2.0 10.0 0.00 0.00 0.00 64 1016.5
20260904145006 82 6 2.0 8.0 0.00 0.00 0.00 65 1016.4
20260904144537 82 6 2.0 8.0 0.00 0.00 0.00 65 1016.4
20260904144017 82 8 2.0 5.0 0.00 0.00 0.00 65 1016.3
20260904143515 82 6 3.0 5.0 0.00 0.00 0.00 66 1016.4
20260904143032 81 5 1.0 6.0 0.00 0.00 0.00 67 1016.4
20260904142513 81 6 2.0 8.0 0.00 0.00 0.00 67 1016.3
20260904142005 80 4 3.0 8.0 0.00 0.00 0.00 67 1016.3
20260904141538 80 5 2.0 6.0 0.00 0.00 0.00 68 1016.3
20260904141007 80 4 3.0 5.0 0.00 0.00 0.00 69 1016.2
20260904140518 79 5 2.0 5.0 0.00 0.00 0.00 70 1016.2
20260904140033 78 4 2.0 5.0 0.00 0.00 0.00 71 1016.2
20260904135511 78 55 2.0 5.0 0.00 0.00 0.00 71 1016.1
20260904135005 78 60 2.0 5.0 0.00 0.00 0.00 72 1016.1
20260904134536 77 4 1.0 4.0 0.00 0.00 0.00 73 1016.0
20260904134015 77 4 0.0 4.0 0.00 0.00 0.00 73 1015.9
20260904133504 77 4 1.0 3.0 0.00 0.00 0.00 73 1015.8
20260904133027 77 7 0.0 3.0 0.00 0.00 0.00 73 1015.7
20260904132510 77 9 0.0 4.0 0.00 0.00 0.00 72 1015.7
20260904132005 77 360 1.0 4.0 0.00 0.00 0.00 72 1015.6
20260904131532 77 360 1.0 3.0 0.00 0.00 0.00 72 1015.5
20260904131019 78 360 0.0 3.0 0.00 0.00 0.00 71 1015.4
20260904130509 78 360 0.0 3.0 0.00 0.00 0.00 71 1015.3
20260904130037 78 360 1.0 3.0 0.00 0.00 0.00 71 1015.2
20260904125512 78 360 1.0 3.0 0.00 0.00 0.00 71 1015.2
20260904125006 78 360 0.0 3.0 0.00 0.00 0.00 70 1015.1
20260904124528 78 360 0.0 2.0 0.00 0.00 0.00 70 1015.1
20260904124012 78 360 0.0 3.0 0.00 0.00 0.00 70 1015.0
20260904123508 78 11 0.0 3.0 0.00 0.00 0.00 69 1014.9
20260904123030 78 360 0.0 3.0 0.00 0.00 0.00 69 1014.8
20260904122508 78 360 0.0 2.0 0.00 0.00 0.00 69 1014.8
20260904122006 79 360 0.0 2.0 0.00 0.00 0.00 69 1014.6
20260904121532 79 360 0.0 1.0 0.00 0.00 0.00 69 1014.6
20260904121012 79 360 0.0 5.0 0.00 0.00 0.00 69 1014.7
20260904120506 79 11 1.0 5.0 0.00 0.00 0.00 69 1014.7
20260904120037 79 360 0.0 2.0 0.00 0.00 0.00 69 1014.7
20260904115509 79 360 0.0 4.0 0.00 0.00 0.00 68 1014.7
20260904115004 79 360 0.0 4.0 0.00 0.00 0.00 68 1014.6
20260904114531 79 11 2.0 7.0 0.00 0.00 0.00 68 1014.7
20260904114012 80 360 0.0 7.0 0.00 0.00 0.00 67 1014.7
20260904113506 80 360 2.0 5.0 0.00 0.00 0.00 67 1014.6
20260904113033 80 360 1.0 5.0 0.00 0.00 0.00 66 1014.6
20260904112507 80 360 1.0 6.0 0.00 0.00 0.00 66 1014.5
20260904112005 80 9 1.0 6.0 0.00 0.00 0.00 66 1014.4
20260904111540 80 360 1.0 5.0 0.00 0.00 0.00 66 1014.5
20260904111012 80 360 1.0 5.0 0.00 0.00 0.00 66 1014.5
20260904110504 80 11 1.0 6.0 0.00 0.00 0.00 65 1014.5
20260904110031 80 8 2.0 6.0 0.00 0.00 0.00 65 1014.5
20260904105510 80 8 2.0 6.0 0.00 0.00 0.00 66 1014.5
20260904105005 80 8 1.0 6.0 0.00 0.00 0.00 66 1014.5
20260904104530 80 6 1.0 5.0 0.00 0.00 0.00 66 1014.4
20260904104008 80 6 2.0 5.0 0.00 0.00 0.00 66 1014.5
20260904103504 80 9 0.0 4.0 0.00 0.00 0.00 66 1014.5
20260904103041 80 8 1.0 4.0 0.00 0.00 0.00 66 1014.5
20260904102510 80 8 1.0 5.0 0.00 0.00 0.00 66 1014.5
20260904102019 80 11 1.0 6.0 0.00 0.00 0.00 66 1014.5
20260904101529 80 6 2.0 6.0 0.00 0.00 0.00 66 1014.5
20260904101009 80 10 1.0 6.0 0.00 0.00 0.00 66 1014.4
20260904100518 80 8 2.0 6.0 0.00 0.00 0.00 66 1014.5
20260904100031 80 6 1.0 6.0 0.00 0.00 0.00 66 1014.4
20260904095513 80 6 1.0 9.0 0.00 0.00 0.00 66 1014.4
20260904095006 80 6 4.0 9.0 0.00 0.00 0.00 66 1014.3
20260904094530 80 9 1.0 6.0 0.00 0.00 0.00 66 1014.2
20260904094007 81 9 0.0 7.0 0.00 0.00 0.00 66 1014.2
20260904093504 81 8 1.0 8.0 0.00 0.00 0.00 66 1014.2
20260904093028 81 8 2.0 8.0 0.00 0.00 0.00 65 1014.2
20260904092508 80 7 2.0 8.0 0.00 0.00 0.00 66 1014.2
20260904092004 80 8 1.0 8.0 0.00 0.00 0.00 66 1014.2
20260904091530 80 8 2.0 7.0 0.00 0.00 0.00 66 1014.1
20260904091015 80 8 2.0 7.0 0.00 0.00 0.00 66 1014.2
20260904090503 80 8 0.0 4.0 0.00 0.00 0.00 66 1014.3
20260904090030 80 8 0.0 5.0 0.00 0.00 0.00 66 1014.3
20260904085511 80 360 2.0 5.0 0.00 0.00 0.00 66 1014.2
20260904085006 80 11 1.0 6.0 0.00 0.00 0.00 66 1014.2
20260904084530 80 10 0.0 6.0 0.00 0.00 0.00 66 1014.2
20260904084012 80 11 1.0 5.0 0.00 0.00 0.00 66 1014.2
20260904083504 80 360 0.0 5.0 0.00 0.00 0.00 66 1014.2
20260904083047 80 360 0.0 5.0 0.00 0.00 0.00 66 1014.3
20260904082512 80 360 2.0 4.0 0.00 0.00 0.00 66 1014.3
20260904082005 80 360 0.0 4.0 0.00 0.00 0.00 66 1014.4
20260904081531 81 360 1.0 4.0 0.00 0.00 0.00 66 1014.4
20260904081010 81 360 0.0 4.0 0.00 0.00 0.00 66 1014.4
20260904080505 81 360 0.0 5.0 0.00 0.00 0.00 65 1014.4
20260904080029 81 360 0.0 5.0 0.00 0.00 0.00 65 1014.4
20260904075508 81 13 1.0 5.0 0.00 0.00 0.00 65 1014.4
20260904075005 81 11 1.0 5.0 0.00 0.00 0.00 65 1014.4
20260904074545 81 7 0.0 5.0 0.00 0.00 0.00 65 1014.4
20260904074011 81 360 2.0 6.0 0.00 0.00 0.00 65 1014.4
20260904073506 81 8 2.0 6.0 0.00 0.00 0.00 65 1014.4
20260904073035 81 360 2.0 5.0 0.00 0.00 0.00 65 1014.4
20260904072510 81 360 1.0 5.0 0.00 0.00 0.00 64 1014.5
20260904072006 81 11 0.0 8.0 0.00 0.00 0.00 64 1014.6
20260904071531 81 360 2.0 8.0 0.00 0.00 0.00 64 1014.6
20260904071018 81 9 1.0 5.0 0.00 0.00 0.00 64 1014.6
20260904070506 81 360 0.0 5.0 0.00 0.00 0.00 63 1014.6
20260904070029 81 8 1.0 6.0 0.00 0.00 0.00 63 1014.6
20260904065508 82 11 1.0 6.0 0.00 0.00 0.00 63 1014.5
20260904065004 82 8 1.0 5.0 0.00 0.00 0.00 63 1014.5
20260904064535 82 10 2.0 5.0 0.00 0.00 0.00 62 1014.6
20260904064008 82 360 1.0 5.0 0.00 0.00 0.00 62 1014.6
20260904063504 82 10 1.0 5.0 0.00 0.00 0.00 62 1014.6
20260904063028 82 360 1.0 5.0 0.00 0.00 0.00 62 1014.6
20260904062511 82 10 1.0 5.0 0.00 0.00 0.00 62 1014.5
20260904062006 82 360 1.0 5.0 0.00 0.00 0.00 62 1014.5
20260904061539 82 11 1.0 5.0 0.00 0.00 0.00 62 1014.5
20260904061010 82 360 1.0 5.0 0.00 0.00 0.00 61 1014.5
20260904060506 82 360 0.0 5.0 0.00 0.00 0.00 61 1014.5
20260904060030 82 360 0.0 6.0 0.00 0.00 0.00 60 1014.4
20260904055508 82 11 1.0 7.0 0.00 0.00 0.00 60 1014.4
20260904055004 82 360 2.0 7.0 0.00 0.00 0.00 60 1014.4
20260904054535 83 360 1.0 9.0 0.00 0.00 0.00 60 1014.3
20260904054010 83 8 1.0 9.0 0.00 0.00 0.00 60 1014.3
20260904053507 82 360 2.0 6.0 0.00 0.00 0.00 61 1014.3
20260904053033 83 8 1.0 5.0 0.00 0.00 0.00 61 1014.2
20260904052513 83 9 1.0 8.0 0.00 0.00 0.00 60 1014.3
20260904052010 83 8 3.0 8.0 0.00 0.00 0.00 60 1014.3
20260904051530 83 10 3.0 8.0 0.00 0.00 0.00 60 1014.3
20260904051009 83 360 0.0 7.0 0.00 0.00 0.00 61 1014.3
20260904050517 83 360 1.0 7.0 0.00 0.00 0.00 60 1014.3
20260904050028 83 360 2.0 7.0 0.00 0.00 0.00 60 1014.4
20260904045510 83 360 1.0 5.0 0.00 0.00 0.00 58 1014.4
20260904045021 84 360 1.0 8.0 0.00 0.00 0.00 58 1014.4
20260904044529 84 360 1.0 8.0 0.00 0.00 0.00 58 1014.4
20260904044009 84 360 0.0 5.0 0.00 0.00 0.00 58 1014.4
20260904043520 84 10 1.0 5.0 0.00 0.00 0.00 58 1014.5
20260904043029 84 11 0.0 6.0 0.00 0.00 0.00 58 1014.6
20260904042510 84 13 0.0 6.0 0.00 0.00 0.00 58 1014.6
20260904042016 84 9 3.0 7.0 0.00 0.00 0.00 58 1014.4
20260904041535 84 10 3.0 7.0 0.00 0.00 0.00 58 1014.5
20260904041013 84 11 2.0 8.0 0.00 0.00 0.00 58 1014.5
20260904040514 84 9 3.0 8.0 0.00 0.00 0.00 59 1014.5
20260904040028 84 360 1.0 6.0 0.00 0.00 0.00 59 1014.5
20260904035512 84 360 2.0 8.0 0.00 0.00 0.00 58 1014.4
20260904035018 84 8 2.0 8.0 0.00 0.00 0.00 59 1014.2
20260904034531 84 360 3.0 9.0 0.00 0.00 0.00 58 1014.1
20260904034010 84 360 4.0 9.0 0.00 0.00 0.00 58 1014.0
20260904033519 84 360 3.0 8.0 0.00 0.00 0.00 59 1014.1
20260904033027 84 360 1.0 8.0 0.00 0.00 0.00 58 1014.0
20260904032509 84 360 3.0 10.0 0.00 0.00 0.00 58 1014.0
20260904032017 84 10 2.0 10.0 0.00 0.00 0.00 59 1013.9
20260904031528 84 10 1.0 9.0 0.00 0.00 0.00 59 1013.8
20260904031020 84 11 2.0 9.0 0.00 0.00 0.00 58 1013.8
20260904030514 84 360 3.0 9.0 0.00 0.00 0.00 59 1013.6
20260904030028 84 11 3.0 9.0 0.00 0.00 0.00 59 1013.5
20260904025519 84 11 3.0 8.0 0.00 0.00 0.00 59 1013.5
20260904025016 84 6 2.0 8.0 0.00 0.00 0.00 59 1013.4